Weather History for Versailles, OH

Change the Weather History Date:

Friday, January 25, 2013

  Actual Average (KDAY) Record (KDAY)
Temperature  
Mean Temperature 20 °F 28 °F  
Max Temperature 24 °F 35 °F 71 °F (1950)
Min Temperature 17 °F 20 °F -12 °F (1897)
Degree Days  
Heating Degree Days 44 37  
Month to date heating degree days 942  
Since 1 July heating degree days 3101  
Cooling Degree Days 0 0  
Month to date cooling degree days 0  
Year to date cooling degree days 0  
Moisture  
Dew Point 16 °F    
Average Humidity 81    
Maximum Humidity 93    
Minimum Humidity 68    
Precipitation  
Precipitation 0.00 in 0.08 in 0.95 in (1978)
Month to date precipitation 2.23  
Year to date precipitation 2.23  
Snow  
Snow 0.00 in 0.30 in 4.90 in (1915)
Month to date snowfall 6.4  
Since 1 July snowfall 11.9  
Snow Depth -    
Sea Level Pressure  
Sea Level Pressure 30.13 in    
Wind  
Wind Speed 9 mph (South)    
Max Wind Speed 14 mph    
Max Gust Speed 20 mph    
Visibility 8 miles    
Events Snow    
T = Trace of Precipitation, MM = Missing Value Source: NWS Daily Summary

Daily Weather History Graph

Daily Weather History Graph

Search for Another Location

Airport:

Trip Planner

Search our weather history database for the weather conditions in past years. The results will help you decide how hot, cold, wet, or windy it might be!

Date:

Astronomy

Jan. 25, 2013 Rise Set
Actual Time 7:52 AM EST 5:48 PM EST
Civil Twilight 7:23 AM EST 6:17 PM EST
Nautical Twilight 6:50 AM EST 6:50 PM EST
Astronomical Twilight 6:18 AM EST 7:23 PM EST
Moon 4:45 PM EST (1/25) 6:31 AM EST (1/25)
Length of Visible Light 10h 54m
Length of Day
9h 56m
Waxing Gibbous, 98% of the Moon is Illuminated
Jan 25
Waxing Gibbous
Jan 26
Full
Feb 3
Last Quarter
Feb 10
New
Feb 17
First Quarter

Hourly Weather History & Observations

Time (EST) Temp. Windchill Dew Point Humidity Pressure Visibility Wind Dir Wind Speed Gust Speed Precip Events Conditions
12:15 AM 17.6 °F 8.2 °F 10.4 °F 73% 30.42 in 10.0 mi SE 6.9 mph - N/A   Clear
12:35 AM 17.6 °F 8.2 °F 10.4 °F 73% 30.41 in 10.0 mi ESE 6.9 mph - N/A   Clear
12:55 AM 17.6 °F 6.4 °F 10.4 °F 73% 30.37 in 10.0 mi ESE 9.2 mph - N/A   Scattered Clouds
1:15 AM 17.6 °F 7.3 °F 10.4 °F 73% 30.36 in 10.0 mi SE 8.1 mph - N/A   Clear
1:55 AM 19.4 °F 9.5 °F 10.4 °F 68% 30.36 in 10.0 mi ESE 8.1 mph - N/A   Clear
2:15 AM 19.4 °F 8.6 °F 10.4 °F 68% 30.34 in 10.0 mi SE 9.2 mph - N/A   Clear
2:35 AM 19.4 °F 9.5 °F 10.4 °F 68% 30.36 in 10.0 mi SE 8.1 mph - N/A   Clear
2:55 AM 19.4 °F 8.6 °F 10.4 °F 68% 30.34 in 10.0 mi SE 9.2 mph - N/A   Clear
3:15 AM 19.4 °F 8.6 °F 10.4 °F 68% 30.34 in 10.0 mi SE 9.2 mph - N/A   Scattered Clouds
3:35 AM 19.4 °F 9.5 °F 10.4 °F 68% 30.34 in 10.0 mi SE 8.1 mph - N/A   Scattered Clouds
3:55 AM 19.4 °F 7.9 °F 10.4 °F 68% 30.30 in 10.0 mi ESE 10.4 mph - N/A   Mostly Cloudy
4:15 AM 19.4 °F 8.6 °F 10.4 °F 68% 30.28 in 10.0 mi ESE 9.2 mph - N/A   Overcast
4:35 AM 19.4 °F 7.2 °F 10.4 °F 68% 30.27 in 10.0 mi SE 11.5 mph - N/A   Overcast
4:55 AM 19.4 °F 8.6 °F 10.4 °F 68% 30.27 in 10.0 mi SE 9.2 mph - N/A   Overcast
5:15 AM 19.4 °F 7.9 °F 10.4 °F 68% 30.26 in 10.0 mi SE 10.4 mph - N/A   Overcast
5:35 AM 19.4 °F 7.2 °F 10.4 °F 68% 30.22 in 10.0 mi SE 11.5 mph 17.3 mph N/A   Overcast
5:55 AM 19.4 °F 6.6 °F 10.4 °F 68% 30.21 in 10.0 mi SE 12.7 mph - N/A   Overcast
6:15 AM 19.4 °F 6.0 °F 10.4 °F 68% 30.19 in 10.0 mi SE 13.8 mph - N/A   Overcast
6:35 AM 19.4 °F 7.2 °F 10.4 °F 68% 30.19 in 10.0 mi SE 11.5 mph - N/A   Overcast
6:55 AM 19.4 °F 7.2 °F 12.2 °F 74% 30.18 in 1.5 mi SE 11.5 mph 17.3 mph N/A Snow Light Snow
7:15 AM 17.6 °F 4.3 °F 14.0 °F 86% 30.17 in 0.8 mi SSE 12.7 mph 19.6 mph N/A Snow Light Snow
7:35 AM 17.6 °F 5.0 °F 15.8 °F 93% 30.17 in 0.8 mi SE 11.5 mph - N/A Snow Light Snow
7:55 AM 17.6 °F 5.7 °F 15.8 °F 93% 30.16 in 0.5 mi SSE 10.4 mph - N/A Snow Light Snow
8:15 AM 17.6 °F 5.0 °F 15.8 °F 93% 30.15 in 1.2 mi SSE 11.5 mph - N/A Snow Light Snow
8:35 AM 17.6 °F 5.7 °F 15.8 °F 93% 30.14 in 1.0 mi SSE 10.4 mph - N/A Snow Light Snow
8:55 AM 17.6 °F 6.4 °F 15.8 °F 93% 30.13 in 0.5 mi SE 9.2 mph - N/A Snow Snow
9:15 AM 17.6 °F 5.7 °F 15.8 °F 93% 30.14 in 0.8 mi SSE 10.4 mph - N/A Snow Light Snow
9:35 AM 17.6 °F 5.0 °F 15.8 °F 93% 30.12 in 0.5 mi SSE 11.5 mph - N/A Snow Light Snow
9:55 AM 17.6 °F 7.3 °F 15.8 °F 93% 30.11 in 1.0 mi SSE 8.1 mph - N/A Snow Light Snow
10:15 AM 17.6 °F 6.4 °F 15.8 °F 93% 30.11 in 1.0 mi SSE 9.2 mph - N/A Snow Light Snow
10:35 AM 19.4 °F 7.9 °F 15.8 °F 86% 30.11 in 1.8 mi SSE 10.4 mph - N/A Snow Light Snow
10:55 AM 19.4 °F 9.5 °F 15.8 °F 86% 30.11 in 1.8 mi SSE 8.1 mph - N/A Snow Light Snow
11:15 AM 19.4 °F 8.6 °F 15.8 °F 86% 30.10 in 3.0 mi SSE 9.2 mph - N/A Snow Light Snow
11:35 AM 19.4 °F 10.4 °F 15.8 °F 86% 30.10 in 2.5 mi SSE 6.9 mph - N/A Snow Light Snow
12:15 PM 19.4 °F 12.8 °F 15.8 °F 86% 30.06 in 7.0 mi South 4.6 mph - N/A   Overcast
12:35 PM 19.4 °F 10.4 °F 15.8 °F 86% 30.05 in 7.0 mi South 6.9 mph - N/A   Overcast
12:55 PM 21.2 °F 11.7 °F 15.8 °F 80% 30.05 in 10.0 mi SSW 8.1 mph - N/A   Overcast
1:15 PM 21.2 °F 12.6 °F 17.6 °F 86% 30.04 in 10.0 mi SSW 6.9 mph - N/A   Overcast
1:35 PM 21.2 °F 12.6 °F 17.6 °F 86% 30.03 in 10.0 mi SW 6.9 mph - N/A   Overcast
1:55 PM 21.2 °F 12.6 °F 17.6 °F 86% 30.03 in 10.0 mi SW 6.9 mph - N/A   Overcast
2:15 PM 21.2 °F 12.6 °F 17.6 °F 86% 30.02 in 10.0 mi SW 6.9 mph - N/A   Overcast
2:35 PM 21.2 °F 13.6 °F 17.6 °F 86% 30.01 in 10.0 mi SW 5.8 mph - N/A   Overcast
2:55 PM 23.0 °F 14.7 °F 17.6 °F 80% 30.01 in 10.0 mi WSW 6.9 mph - N/A   Overcast
3:15 PM 23.0 °F 14.7 °F 17.6 °F 80% 30.00 in 10.0 mi SW 6.9 mph - N/A   Overcast
3:35 PM 23.0 °F 14.7 °F 17.6 °F 80% 30.00 in 10.0 mi WSW 6.9 mph - N/A   Overcast
3:55 PM 23.0 °F 13.1 °F 17.6 °F 80% 30.00 in 10.0 mi West 9.2 mph - N/A   Overcast
4:15 PM 23.0 °F 12.4 °F 17.6 °F 80% 30.01 in 10.0 mi West 10.4 mph - N/A   Overcast
4:35 PM 23.0 °F 14.7 °F 17.6 °F 80% 30.02 in 10.0 mi West 6.9 mph - N/A   Overcast
4:55 PM 23.0 °F 14.7 °F 19.4 °F 86% 30.02 in 10.0 mi West 6.9 mph - N/A   Overcast
5:15 PM 23.0 °F 13.1 °F 19.4 °F 86% 30.02 in 10.0 mi West 9.2 mph - N/A   Overcast
5:35 PM 23.0 °F 14.7 °F 19.4 °F 86% 30.02 in 10.0 mi West 6.9 mph - N/A   Overcast
5:55 PM 23.0 °F 14.7 °F 19.4 °F 86% 30.02 in 10.0 mi West 6.9 mph - N/A   Overcast
6:15 PM 23.0 °F 14.7 °F 19.4 °F 86% 30.02 in 10.0 mi SW 6.9 mph - N/A   Overcast
6:35 PM 23.0 °F 13.9 °F 19.4 °F 86% 30.01 in 10.0 mi SW 8.1 mph - N/A   Overcast
6:55 PM 23.0 °F 14.7 °F 19.4 °F 86% 30.02 in 10.0 mi WSW 6.9 mph - N/A   Overcast
7:15 PM 23.0 °F 13.9 °F 19.4 °F 86% 30.03 in 10.0 mi WSW 8.1 mph - N/A   Overcast
7:35 PM 23.0 °F 13.9 °F 19.4 °F 86% 30.04 in 10.0 mi WSW 8.1 mph - N/A   Overcast
7:55 PM 23.0 °F 13.9 °F 19.4 °F 86% 30.05 in 10.0 mi West 8.1 mph - N/A   Overcast
8:15 PM 23.0 °F 14.7 °F 19.4 °F 86% 30.07 in 10.0 mi WSW 6.9 mph - N/A   Overcast
8:35 PM 23.0 °F 13.9 °F 19.4 °F 86% 30.07 in 10.0 mi WSW 8.1 mph - N/A   Overcast
8:55 PM 23.0 °F 17.0 °F 19.4 °F 86% 30.06 in 10.0 mi West 4.6 mph - N/A   Overcast
9:15 PM 23.0 °F 15.8 °F 19.4 °F 86% 30.06 in 10.0 mi SW 5.8 mph - N/A Snow Light Snow
9:35 PM 23.0 °F 13.9 °F 19.4 °F 86% 30.06 in 10.0 mi SW 8.1 mph - N/A   Overcast
9:55 PM 24.8 °F 16.1 °F 19.4 °F 80% 30.06 in 10.0 mi SW 8.1 mph - N/A   Overcast
10:15 PM 24.8 °F 17.9 °F 19.4 °F 80% 30.06 in 10.0 mi SW 5.8 mph - N/A   Overcast
10:35 PM 24.8 °F 17.9 °F 19.4 °F 80% 30.06 in 10.0 mi SSW 5.8 mph - N/A   Overcast
10:55 PM 24.8 °F 16.1 °F 19.4 °F 80% 30.05 in 10.0 mi SSW 8.1 mph - N/A   Overcast
11:15 PM 24.8 °F 16.1 °F 19.4 °F 80% 30.06 in 10.0 mi SW 8.1 mph - N/A   Overcast
11:35 PM 24.8 °F 14.6 °F 19.4 °F 80% 30.06 in 10.0 mi SSW 10.4 mph - N/A   Overcast
11:55 PM 24.8 °F 16.1 °F 21.2 °F 86% 30.06 in 10.0 mi SSW 8.1 mph 17.3 mph N/A   Overcast